[[{"header":{"parameterUnit":"m.s-1","parameterCategory":1,"la1":30.2991,"la2":30.254,"lo1":-89.0895,"lo2":-89.0444,"dy":0.0017,"dx":0.0017,"nx":28,"ny":28,"refTime":"2026-02-03T03:00:00:Z","depth":0,"parameterNumber":2,"parameterNumberName":"U-component_of_WINDS"},"data":[0,0,0,0,0,0,0,0,0,0,0,0,0,0,0,0,0,0,0,0,0,0,0,0,0,0,0,0,0,0,0,0,0,0,0,0,0,0,0,0,0,0,0,0,0,0,0,0,0,0,0,0,0,0,0,0,0,0,1.8048,1.8049,0,1.8143,1.8144,1.8145,1.8135,1.8133,1.8132,1.813,1.8233,1.8237,1.8241,0,0,0,0,0,0,0,0,0,0,0,0,0,1.7863,1.7866,1.8048,1.8049,1.805,1.8143,1.8144,1.8146,1.8135,1.8133,1.8131,1.813,1.8231,1.8236,1.8241,0,0,0,0,0,0,0,0,0,0,0,0,0,1.7949,1.7868,1.8048,1.8056,1.8058,1.8143,1.8144,1.8146,1.8135,1.8133,1.8131,1.8129,1.823,1.8236,1.8242,1.8326,0,0,1.8261,1.8263,0,0,0,0,0,0,0,0,1.7944,1.7956,1.8054,1.8056,1.8058,1.8125,1.8116,1.8206,1.8136,1.8106,1.813,1.8128,1.8199,1.8207,1.823,1.8331,1.8335,1.8261,1.8265,1.8268,1.827,0,0,0,0,0,0,0,1.7938,1.7952,1.8086,1.8055,1.8058,1.8057,1.8067,1.8133,1.8164,1.8109,1.8108,1.8119,1.82,1.8224,1.8233,1.8336,1.8261,1.8267,1.827,1.8273,1.8513,1.8515,0,0,0,0,0,0,1.793,1.7947,1.8083,1.8089,1.7994,1.8062,1.8073,1.8106,1.8164,1.817,1.8121,1.8118,1.8215,1.8226,1.8236,1.834,1.8268,1.8274,1.8277,1.851,1.8513,1.8516,0,0,0,0,0,0,1.7926,1.7942,1.8079,1.8018,1.8035,1.8068,1.8104,1.8109,1.8133,1.8173,1.8179,1.814,1.8214,1.8228,1.8304,1.8343,1.8276,1.8282,1.8507,1.8511,1.8515,1.8547,0,0,0,0,0,0,1.792,1.794,1.7971,1.8018,1.8038,1.8143,1.8107,1.8112,1.8144,1.8141,1.8193,1.8199,1.8213,1.8295,1.831,1.8351,1.8287,1.8504,1.8509,1.8514,1.8542,1.8551,1.8559,0,0,0,0,0,1.7914,1.7977,1.7973,1.7989,1.8077,1.8145,1.8157,1.817,1.8147,1.8179,1.8205,1.8197,1.8336,1.8302,1.832,1.8363,1.8501,1.8507,1.8513,1.8539,1.855,1.8559,0,0,0,0,0,0,1.7935,1.7983,1.7979,1.8059,1.8098,1.8143,1.8184,1.8181,1.8228,1.8224,1.824,1.8252,1.8329,1.8354,1.8315,1.8448,1.8416,1.8426,1.8429,1.844,1.8448,1.8441,1.8292,0,0,0,0,0,1.7948,1.7998,1.8038,1.8105,1.8125,1.8151,1.8181,1.8188,1.823,1.8247,1.8278,1.832,1.8373,1.8408,1.8459,1.8546,1.8558,1.8584,1.8593,1.8599,1.8608,1.8657,1.867,1.8536,1.8536,1.8536,0,0,1.7978,1.801,1.8041,1.811,1.8141,1.8194,1.8165,1.8222,1.8262,1.8256,1.8329,1.8354,1.8402,1.8484,1.8522,1.8507,1.8647,1.8607,1.8612,1.8617,1.8665,1.8678,1.8689,1.854,1.8539,1.8539,0,0,1.8058,1.8087,1.8146,1.8178,1.8225,1.8242,1.8257,1.8303,1.8319,1.8393,1.839,1.8439,1.8529,1.8564,1.8594,1.869,1.8686,1.8706,1.875,1.8798,1.8809,1.8818,1.8854,1.8866,1.8714,1.8714,1.8714,0,1.8089,1.8166,1.8178,1.8235,1.8267,1.8263,1.8324,1.8355,1.8417,1.844,1.8422,1.8537,1.8569,1.866,1.8684,1.8707,1.8726,1.87,1.8806,1.8816,1.8825,1.8859,1.8872,1.8716,1.8716,1.8716,1.8716,0,1.8203,1.8257,1.83,1.8358,1.8395,1.8454,1.8477,1.8513,1.8517,1.8537,1.8614,1.8652,1.8712,1.8734,1.8739,1.8827,1.8816,1.8802,1.877,1.8839,1.8872,1.8885,1.872,1.8719,1.8718,1.8718,0,0,1.8298,1.8363,1.8378,1.8406,1.8458,1.8501,1.8562,1.8619,1.865,1.8693,1.8746,1.8824,1.8811,1.8845,1.8854,1.8896,1.8972,1.8877,1.8879,1.8895,1.9073,1.9084,1.9099,1.8969,1.8972,1.8974,1.907,0,1.8384,1.8489,1.8502,1.8596,1.8647,1.8645,1.8698,1.8737,1.8758,1.8806,1.883,1.8885,1.8864,1.8884,1.8926,1.8954,1.9008,1.8947,1.902,1.9023,1.9009,1.9116,1.9127,1.9216,1.9082,1.9084,1.9086,0,1.8498,1.8544,1.8643,1.8689,1.8712,1.8758,1.8813,1.8858,1.8904,1.8916,1.8955,1.8959,1.9024,1.8989,1.908,1.9038,1.9069,1.9087,1.9091,1.9099,1.9059,1.9128,1.9244,1.9258,1.9106,1.9104,1.9103,0,1.8559,1.8645,1.8716,1.874,1.8796,1.8829,1.8854,1.8897,1.8931,1.898,1.9002,1.9058,1.9089,1.9133,1.9153,1.9125,1.9244,1.921,1.9258,1.9257,1.9283,1.9281,1.9407,1.9301,1.9301,1.9301,1.9301,0,1.8654,1.8715,1.8744,1.8788,1.8857,1.8873,1.8941,1.8966,1.9004,1.9054,1.9056,1.9103,1.9126,1.9178,1.9195,1.9268,1.9282,1.9296,1.9299,1.9296,1.9294,1.9317,1.9312,1.9304,1.9304,1.9303,1.9302,0,1.8734,1.8755,1.8833,1.888,1.8893,1.8942,1.8983,1.9027,1.9048,1.9111,1.9127,1.916,1.9221,1.9246,1.9321,1.9332,1.9417,1.9416,1.9402,1.9403,1.945,1.9446,1.9595,1.9617,1.9496,1.9497,1.9498,0,1.8793,1.884,1.8892,1.8925,1.8951,1.9004,1.9039,1.9057,1.9094,1.915,1.9187,1.9248,1.9297,1.9395,1.9427,1.9485,1.9486,1.9534,1.9495,1.949,1.9488,1.9486,1.9491,1.9542,1.9543,1.9544,1.9545,0,1.8897,1.8906,1.8955,1.9009,1.905,1.9094,1.9136,1.9164,1.9189,1.923,1.9292,1.933,1.9407,1.9468,1.9528,1.9556,1.9556,1.9557,1.9572,1.9569,1.9559,1.9567,1.9423,1.9554,1.9553,1.9552,1.9552,1.9551,1.8969,1.9011,1.9054,1.911,1.9144,1.9184,1.9228,1.9254,1.9305,1.9368,1.9376,1.9443,1.949,1.957,1.9601,1.9655,1.9643,1.9663,1.9669,1.9674,1.9677,1.955,1.9666,1.9666,1.9666,1.9666,1.9665,0,1.9073,1.9101,1.9152,1.9212,1.9256,1.9251,1.9298,1.9336,1.9395,1.9437,1.9486,1.9558,1.9618,1.9655,1.9716,1.9752,1.9754,1.9768,1.9766,1.9773,1.9684,1.9666,1.9766,1.9766,1.9765,1.9765,1.9765,1.9765,1.9133,1.9204,1.9219,1.9309,1.9337,1.9401,1.9429,1.9467,1.9502,1.9582,1.9631,1.9654,1.9696,1.976,1.9815,1.9825,1.9848,1.9863,1.9872,1.9789,1.9779,1.9769,1.9752,1.9868,1.9868,1.9956,1.9957,1.9958]},{"header":{"parameterUnit":"m.s-1","parameterCategory":1,"la1":30.2991,"la2":30.254,"lo1":-89.0895,"lo2":-89.0444,"dy":0.0017,"dx":0.0017,"nx":28,"ny":28,"refTime":"2026-02-03T03:00:00:Z","depth":0,"parameterNumber":3,"parameterNumberName":"V-component_of_WINDS"},"data":[0,0,0,0,0,0,0,0,0,0,0,0,0,0,0,0,0,0,0,0,0,0,0,0,0,0,0,0,0,0,0,0,0,0,0,0,0,0,0,0,0,0,0,0,0,0,0,0,0,0,0,0,0,0,0,0,0,0,2.5331,2.5332,0,2.542,2.5421,2.5422,2.539,2.5388,2.5386,2.5385,2.5478,2.5482,2.5486,0,0,0,0,0,0,0,0,0,0,0,0,0,2.5136,2.514,2.5331,2.5332,2.5333,2.542,2.5421,2.5422,2.5391,2.5388,2.5386,2.5384,2.5476,2.5482,2.5487,0,0,0,0,0,0,0,0,0,0,0,0,0,2.5223,2.5141,2.5331,2.5328,2.5328,2.5419,2.5421,2.5422,2.5391,2.5388,2.5385,2.5383,2.5475,2.5481,2.5487,2.5587,0,0,2.5507,2.551,0,0,0,0,0,0,0,0,2.5218,2.523,2.5327,2.5328,2.5329,2.5391,2.5386,2.5478,2.5392,2.5368,2.5385,2.5381,2.5452,2.546,2.5483,2.5592,2.5596,2.5508,2.5512,2.5515,2.5517,0,0,0,0,0,0,0,2.5212,2.5226,2.5366,2.5329,2.533,2.5323,2.5332,2.5404,2.5425,2.5369,2.5367,2.5378,2.5451,2.5477,2.5485,2.5597,2.5508,2.5514,2.5518,2.552,2.5794,2.5797,0,0,0,0,0,0,2.5205,2.5221,2.5363,2.5369,2.5265,2.5329,2.5339,2.5374,2.5424,2.5429,2.5381,2.5376,2.5467,2.5477,2.5488,2.561,2.5515,2.5521,2.5524,2.579,2.5794,2.5798,0,0,0,0,0,0,2.5201,2.5218,2.536,2.5294,2.5312,2.5335,2.5375,2.5377,2.5403,2.5433,2.5437,2.5403,2.5465,2.5479,2.5563,2.5613,2.5524,2.553,2.5786,2.5792,2.5796,2.5853,0,0,0,0,0,0,2.5195,2.5217,2.5254,2.5295,2.5315,2.5433,2.5378,2.5381,2.5414,2.5409,2.5454,2.5459,2.5464,2.5554,2.557,2.562,2.5535,2.5782,2.5789,2.5795,2.5847,2.5859,2.587,0,0,0,0,0,2.5189,2.5267,2.5256,2.5274,2.5363,2.5435,2.5447,2.5451,2.5418,2.5457,2.5476,2.5458,2.5604,2.5562,2.558,2.5633,2.5779,2.5787,2.5794,2.5842,2.5857,2.587,0,0,0,0,0,0,2.5232,2.5272,2.5261,2.5355,2.5392,2.543,2.5479,2.5466,2.5514,2.5508,2.5511,2.5521,2.5608,2.5629,2.5582,2.5733,2.5687,2.5698,2.5717,2.5732,2.5743,2.5737,2.554,0,0,0,0,0,2.5252,2.5307,2.5339,2.5419,2.5438,2.5455,2.5487,2.5487,2.5525,2.5541,2.5567,2.5606,2.5661,2.5697,2.5749,2.5849,2.5859,2.5894,2.5906,2.5915,2.5926,2.5982,2.5998,2.5823,2.5823,2.5823,0,0,2.5294,2.5323,2.5358,2.5428,2.5457,2.5515,2.5469,2.5532,2.5575,2.5551,2.5632,2.5652,2.5696,2.5789,2.5831,2.5809,2.5976,2.5925,2.5932,2.5938,2.5991,2.6008,2.6023,2.5828,2.5827,2.5826,0,0,2.5402,2.5429,2.5499,2.5528,2.5572,2.5583,2.56,2.5641,2.5653,2.5734,2.5718,2.577,2.5864,2.5896,2.5925,2.6045,2.6031,2.6062,2.6124,2.6178,2.6192,2.6204,2.6249,2.6265,2.6072,2.6072,2.6072,0,2.545,2.5536,2.5536,2.5601,2.5633,2.5613,2.5685,2.5714,2.5773,2.5796,2.577,2.5888,2.5916,2.6017,2.6047,2.607,2.6091,2.6058,2.619,2.6202,2.6214,2.6257,2.6273,2.6076,2.6075,2.6075,2.6075,0,2.5593,2.5653,2.5704,2.5762,2.5799,2.5867,2.5879,2.5917,2.5914,2.5928,2.6012,2.6044,2.6103,2.6127,2.6124,2.6228,2.6213,2.6188,2.6142,2.6234,2.6275,2.6291,2.6081,2.608,2.6079,2.6078,0,0,2.5731,2.5788,2.5807,2.5834,2.5881,2.5928,2.5995,2.6052,2.6086,2.6127,2.6185,2.6265,2.6243,2.6275,2.6276,2.6323,2.6419,2.6293,2.6294,2.6317,2.6538,2.6558,2.6577,2.6409,2.6412,2.6414,2.6535,0,2.5844,2.5962,2.5965,2.6074,2.613,2.6112,2.6171,2.6207,2.6222,2.6272,2.6288,2.6346,2.6311,2.6331,2.6377,2.6397,2.6464,2.6388,2.6464,2.6467,2.6456,2.6598,2.6619,2.6731,2.6551,2.6553,2.6555,0,2.5992,2.6038,2.6152,2.6192,2.6216,2.6269,2.6322,2.637,2.6411,2.6419,2.6455,2.6449,2.6519,2.6469,2.6566,2.6515,2.6546,2.6561,2.6565,2.6574,2.6518,2.6613,2.6767,2.6785,2.658,2.6578,2.6576,0,2.6084,2.6174,2.6255,2.6277,2.6326,2.6364,2.6386,2.6423,2.6458,2.6505,2.6527,2.6582,2.6612,2.6655,2.6663,2.6626,2.6762,2.6712,2.6771,2.6772,2.6803,2.6801,2.6966,2.6819,2.6819,2.6818,2.6818,0,2.6211,2.6282,2.6297,2.6346,2.6426,2.6428,2.6507,2.6526,2.656,2.6614,2.6601,2.6652,2.666,2.6713,2.672,2.6801,2.6814,2.6823,2.6825,2.6826,2.6825,2.6848,2.6841,2.6823,2.6822,2.6821,2.682,0,2.6328,2.634,2.6427,2.6465,2.6477,2.6534,2.6567,2.6616,2.6629,2.6697,2.6714,2.6735,2.6797,2.6809,2.6882,2.6887,2.6984,2.6977,2.6971,2.6971,2.703,2.7025,2.7218,2.7244,2.7078,2.7079,2.708,0,2.6409,2.6463,2.6508,2.6543,2.6567,2.6623,2.6658,2.6663,2.6701,2.6751,2.6794,2.6854,2.6903,2.7003,2.7026,2.7082,2.7078,2.7141,2.7086,2.7086,2.7081,2.7079,2.7085,2.7152,2.7154,2.7156,2.7157,0,2.6552,2.6556,2.6607,2.6661,2.6704,2.6746,2.6787,2.6817,2.6827,2.687,2.6933,2.6971,2.7046,2.7107,2.7163,2.7187,2.7175,2.7174,2.7191,2.7194,2.7189,2.7195,2.7002,2.717,2.7169,2.7168,2.7167,2.7166,2.6655,2.6703,2.6743,2.68,2.6831,2.687,2.6918,2.6937,2.6989,2.7051,2.705,2.712,2.716,2.7235,2.7262,2.7317,2.7297,2.7321,2.7328,2.7335,2.7341,2.7178,2.7327,2.7326,2.7326,2.7326,2.7326,0,2.68,2.6824,2.6877,2.6935,2.6981,2.6964,2.7008,2.7048,2.7109,2.7148,2.7196,2.727,2.7329,2.7356,2.7415,2.7454,2.745,2.7469,2.7468,2.7474,2.7354,2.7335,2.7472,2.7472,2.7471,2.7471,2.7471,2.7471,2.6881,2.6962,2.697,2.7067,2.7091,2.7159,2.7186,2.7222,2.7253,2.7335,2.7384,2.7401,2.7436,2.7497,2.7551,2.7557,2.7581,2.7604,2.7608,2.7496,2.7482,2.7468,2.7449,2.7608,2.7608,2.7723,2.7724,2.7724]}]]